• en France
  • Liste des pays
  • À 7 jours
  • Température de l'eau
  • Carte satellitaire
  • Carte météo
  • Widgets météo
  • user-avatar
    Se connecter

    Météo par heure à Ch'ŏngjin

    Ce jour, 14 Décembre, Jeudi

    Heure Température Précipitation Vent Pression Humidité
    00:00 -14°C° 0 mm 4 m/s 774 mmHg 53%
    01:00 -14°C° 0 mm 4 m/s 774 mmHg 51%
    02:00 -14°C° 0 mm 4 m/s 774 mmHg 50%
    03:00 -14°C° 0 mm 4 m/s 774 mmHg 49%
    04:00 -14°C° 0 mm 4 m/s 775 mmHg 47%
    05:00 -14°C° 0 mm 4 m/s 775 mmHg 45%
    06:00 -14°C° 0 mm 4 m/s 775 mmHg 43%
    07:00 -12°C° 0 mm 4 m/s 775 mmHg 41%
    08:00 -12°C° 0 mm 3 m/s 775 mmHg 39%
    09:00 -10°C° 0 mm 3 m/s 775 mmHg 39%
    10:00 -8°C° 0 mm 3 m/s 774 mmHg 35%
    11:00 -5°C° 0 mm 2 m/s 774 mmHg 31%
    12:00 -3°C° 0 mm 2 m/s 773 mmHg 28%
    13:00 -3°C° 0 mm 2 m/s 773 mmHg 30%
    14:00 -2°C° 0 mm 2 m/s 772 mmHg 33%
    15:00 -2°C° 0 mm 2 m/s 772 mmHg 36%
    16:00 -2°C° 0 mm 1 m/s 772 mmHg 42%
    17:00 -3°C° 0 mm 1 m/s 772 mmHg 48%
    18:00 -4°C° 0 mm 1 m/s 772 mmHg 53%
    19:00 -4°C° 0 mm 1 m/s 772 mmHg 53%
    20:00 -6°C° 0 mm 1 m/s 772 mmHg 53%
    21:00 -6°C° 0 mm 1 m/s 772 mmHg 49%
    22:00 -6°C° 0 mm 1 m/s 771 mmHg 49%
    23:00 -6°C° 0 mm 2 m/s 771 mmHg 49%

    Demain, 15 Décembre, Vendredi

    Heure Température Précipitation Vent Pression Humidité
    00:00 -6°C° 0 mm 2 m/s 771 mmHg 49%
    01:00 -6°C° 0 mm 2 m/s 770 mmHg 49%
    02:00 -6°C° 0 mm 2 m/s 770 mmHg 49%
    03:00 -4°C° 0 mm 1 m/s 770 mmHg 49%
    04:00 -5°C° 0 mm 2 m/s 769 mmHg 48%
    05:00 -5°C° 0 mm 2 m/s 769 mmHg 48%
    06:00 -5°C° 0 mm 2 m/s 768 mmHg 47%
    07:00 -4°C° 0 mm 2 m/s 768 mmHg 48%
    08:00 -4°C° 0 mm 2 m/s 768 mmHg 49%
    09:00 -4°C° 0 mm 3 m/s 767 mmHg 50%
    10:00 -2°C° 0 mm 3 m/s 767 mmHg 51%
    11:00 -1°C° 0 mm 3 m/s 766 mmHg 53%
    12:00 0°C° 0 mm 3 m/s 765 mmHg 55%
    13:00 0°C° 0 mm 3 m/s 765 mmHg 58%
    14:00 0°C° 0 mm 3 m/s 764 mmHg 61%
    15:00 -1°C° 0 mm 3 m/s 764 mmHg 65%
    16:00 -2°C° 0 mm 3 m/s 764 mmHg 70%
    17:00 -4°C° 0 mm 3 m/s 764 mmHg 75%
    18:00 -5°C° 0 mm 3 m/s 765 mmHg 81%
    19:00 -7°C° 0 mm 4 m/s 765 mmHg 79%
    20:00 -8°C° 0 mm 5 m/s 765 mmHg 77%
    21:00 -10°C° 0 mm 5 m/s 766 mmHg 75%
    22:00 -10°C° 0 mm 5 m/s 766 mmHg 71%
    23:00 -11°C° 0 mm 6 m/s 766 mmHg 67%

    Après-demain, 16 Décembre, Samedi

    Heure Température Précipitation Vent Pression Humidité
    00:00 -12°C° 0 mm 6 m/s 766 mmHg 63%
    01:00 -12°C° 0 mm 6 m/s 766 mmHg 62%
    02:00 -14°C° 0 mm 6 m/s 766 mmHg 60%
    03:00 -14°C° 0 mm 6 m/s 766 mmHg 59%
    04:00 -15°C° 0 mm 7 m/s 765 mmHg 58%
    05:00 -15°C° 0 mm 7 m/s 765 mmHg 58%
    06:00 -15°C° 0 mm 7 m/s 764 mmHg 58%
    07:00 -15°C° 0 mm 7 m/s 765 mmHg 57%
    08:00 -15°C° 0 mm 6 m/s 765 mmHg 56%
    09:00 -14°C° 0 mm 6 m/s 765 mmHg 55%
    10:00 -14°C° 0 mm 6 m/s 764 mmHg 51%
    11:00 -12°C° 0 mm 6 m/s 764 mmHg 48%
    12:00 -11°C° 0 mm 6 m/s 764 mmHg 44%
    13:00 -11°C° 0 mm 6 m/s 764 mmHg 45%
    14:00 -11°C° 0 mm 6 m/s 764 mmHg 45%
    15:00 -11°C° 0 mm 6 m/s 763 mmHg 46%
    16:00 -13°C° 0 mm 7 m/s 764 mmHg 50%
    17:00 -14°C° 0 mm 7 m/s 764 mmHg 54%
    18:00 -15°C° 0 mm 7 m/s 765 mmHg 58%
    19:00 -15°C° 0 mm 7 m/s 765 mmHg 59%
    20:00 -15°C° 0 mm 7 m/s 766 mmHg 60%
    21:00 -17°C° 0 mm 7 m/s 767 mmHg 60%
    22:00 -17°C° 0 mm 7 m/s 767 mmHg 60%
    23:00 -16°C° 0 mm 6 m/s 767 mmHg 60%

    17 Décembre, Dimanche

    Heure Température Précipitation Vent Pression Humidité
    00:00 -16°C° 0 mm 6 m/s 768 mmHg 60%
    01:00 -15°C° 0 mm 5 m/s 768 mmHg 60%
    02:00 -17°C° 0 mm 5 m/s 768 mmHg 59%
    03:00 -17°C° 0 mm 5 m/s 768 mmHg 59%
    04:00 -16°C° 0 mm 4 m/s 768 mmHg 59%
    05:00 -16°C° 0 mm 4 m/s 768 mmHg 58%
    06:00 -16°C° 0 mm 4 m/s 768 mmHg 58%
    07:00 -15°C° 0 mm 4 m/s 768 mmHg 56%
    08:00 -14°C° 0 mm 3 m/s 769 mmHg 54%
    09:00 -13°C° 0 mm 3 m/s 769 mmHg 51%
    10:00 -10°C° 0 mm 3 m/s 768 mmHg 47%
    11:00 -9°C° 0 mm 3 m/s 768 mmHg 42%
    12:00 -6°C° 0 mm 2 m/s 767 mmHg 37%
    13:00 -6°C° 0 mm 2 m/s 767 mmHg 38%
    14:00 -6°C° 0 mm 2 m/s 766 mmHg 39%
    15:00 -5°C° 0 mm 2 m/s 766 mmHg 41%
    16:00 -7°C° 0 mm 2 m/s 766 mmHg 48%
    17:00 -7°C° 0 mm 1 m/s 766 mmHg 55%
    18:00 -8°C° 0 mm 1 m/s 767 mmHg 61%
    19:00 -8°C° 0 mm 1 m/s 767 mmHg 60%
    20:00 -9°C° 0 mm 1 m/s 767 mmHg 59%
    21:00 -9°C° 0 mm 1 m/s 767 mmHg 58%
    22:00 -10°C° 0 mm 2 m/s 767 mmHg 57%
    23:00 -10°C° 0 mm 2 m/s 767 mmHg 56%

    18 Décembre, Lundi

    Heure Température Précipitation Vent Pression Humidité
    00:00 -10°C° 0 mm 2 m/s 767 mmHg 55%
    01:00 -10°C° 0 mm 2 m/s 766 mmHg 56%
    02:00 -10°C° 0 mm 2 m/s 766 mmHg 58%
    03:00 -10°C° 0 mm 2 m/s 766 mmHg 60%
    04:00 -10°C° 0 mm 2 m/s 766 mmHg 61%
    05:00 -10°C° 0 mm 2 m/s 766 mmHg 63%
    06:00 -10°C° 0 mm 2 m/s 765 mmHg 64%
    07:00 -9°C° 0 mm 2 m/s 765 mmHg 64%
    08:00 -8°C° 0 mm 2 m/s 765 mmHg 63%
    09:00 -8°C° 0 mm 2 m/s 765 mmHg 62%
    10:00 -6°C° 0 mm 2 m/s 765 mmHg 57%
    11:00 -5°C° 0 mm 2 m/s 765 mmHg 52%
    12:00 -4°C° 0 mm 3 m/s 764 mmHg 47%
    13:00 -3°C° 0 mm 2 m/s 764 mmHg 48%
    14:00 -3°C° 0 mm 2 m/s 764 mmHg 48%
    15:00 -3°C° 0 mm 2 m/s 763 mmHg 49%
    16:00 -4°C° 0 mm 2 m/s 764 mmHg 55%
    17:00 -5°C° 0 mm 2 m/s 764 mmHg 62%
    18:00 -6°C° 0 mm 2 m/s 764 mmHg 69%
    19:00 -7°C° 0 mm 3 m/s 765 mmHg 71%
    20:00 -7°C° 0 mm 3 m/s 765 mmHg 72%
    21:00 -9°C° 0 mm 4 m/s 766 mmHg 74%
    22:00 -9°C° 0 mm 4 m/s 766 mmHg 74%
    23:00 -10°C° 0 mm 4 m/s 766 mmHg 75%

    19 Décembre, Mardi

    Heure Température Précipitation Vent Pression Humidité
    00:00 -10°C° 0 mm 4 m/s 766 mmHg 75%
    01:00 -10°C° 0 mm 4 m/s 766 mmHg 75%
    02:00 -12°C° 0 mm 5 m/s 767 mmHg 74%
    03:00 -12°C° 0 mm 5 m/s 767 mmHg 73%
    04:00 -13°C° 0 mm 5 m/s 767 mmHg 72%
    05:00 -13°C° 0 mm 5 m/s 767 mmHg 71%
    06:00 -13°C° 0 mm 5 m/s 768 mmHg 69%
    07:00 -13°C° 0 mm 5 m/s 768 mmHg 67%
    08:00 -13°C° 0 mm 5 m/s 769 mmHg 64%
    09:00 -14°C° 0 mm 6 m/s 769 mmHg 61%
    10:00 -12°C° 0 mm 6 m/s 769 mmHg 55%
    11:00 -11°C° 0 mm 6 m/s 769 mmHg 49%
    12:00 -10°C° 0 mm 6 m/s 769 mmHg 43%
    13:00 -10°C° 0 mm 5 m/s 769 mmHg 43%
    14:00 -10°C° 0 mm 5 m/s 769 mmHg 43%
    15:00 -10°C° 0 mm 5 m/s 768 mmHg 42%
    16:00 -10°C° 0 mm 4 m/s 769 mmHg 47%
    17:00 -11°C° 0 mm 4 m/s 769 mmHg 52%
    18:00 -12°C° 0 mm 4 m/s 770 mmHg 56%
    19:00 -12°C° 0 mm 4 m/s 770 mmHg 58%
    20:00 -12°C° 0 mm 4 m/s 770 mmHg 60%
    21:00 -14°C° 0 mm 4 m/s 771 mmHg 61%
    22:00 -13°C° 0 mm 3 m/s 771 mmHg 60%
    23:00 -13°C° 0 mm 3 m/s 770 mmHg 59%
    Voir plus